Location: Hamilton
(37.7830°S, 175.2830°E)
Time: 02:29:01
(UTC+12:00)

Cosmos 2208 Rocket - Pass Details

Date: 24 January 2019
Orbit: 755 x 805 km, 74.0° (Epoch: 17 April)

Event Time Altitude Azimuth Distance (km) Brightness Sun altitude
Rises 21:56:55 0° 200° (SSW) 3,248 8.3 -14.0°
Reaches altitude 10° 21:59:18 10° 200° (SSW) 2,319 7.4 -14.4°
Maximum altitude 22:04:34 82° 286° (WNW) 785 4.1 -15.2°
Enters shadow 22:08:32 18° 12° (NNE) 1,828 5.5 -15.8°
